Location: Presov
(49.0000°N, 21.2500°E)
Time: 04:09:24
(UTC+02:00)

SR - Pass Details

Date: 27 April 2021
Orbit: 573 x 882 km, 66.7° (Epoch: 16 May)

Event Time Altitude Azimuth Distance (km) Brightness Sun altitude
Rises 04:31:03 0° 148° (SSE) 3,340 ? -8.1°
Reaches altitude 10° 04:35:44 10° 112° (ESE) 2,479 ? -7.5°
Maximum altitude 04:37:00 11° 99° (E) 2,442 ? -7.3°
Drops below altitude 10° 04:38:17 10° 87° (E) 2,509 ? -7.1°
Sets 04:43:07 0° 52° (NE) 3,484 ? -6.4°
